Simultaneous Nadir Overpasses (SNOs) Predictions

Prediction of SNOs between LANDSAT-8 and METOP-A Satellite Orbit:

Table of predicted SNOs for the next 14.0 days since TLE Epoch: 11/20/2013
Index Date (LANDSAT-8) Time (LANDSAT-8) Lat,Lon (LANDSAT-8) SZA (LANDSAT-8 ) Date (METOP-A) Time (METOP-A) Lat,Lon (METOP-A) SZA (METOP-A ) Distance(km) Time Diff (sec)
1 11/21/2013 01:46:55 81.16,-166.09 103.43 11/21/2013 01:46:23 81.17,-166.07 103.43 0.62 32
2 11/21/2013 02:36:21 -81.18, 1.87 76.52 11/21/2013 02:37:03 -81.18, 1.71 76.52 2.70 42
3 11/23/2013 21:21:05 81.17, -99.45 104.04 11/23/2013 21:20:41 81.18, -99.28 104.05 2.92 24
4 11/23/2013 22:10:31 -81.20, 68.54 75.91 11/23/2013 22:11:21 -81.19, 68.51 75.89 0.61 50
5 11/26/2013 16:55:16 81.17, -33.08 104.54 11/26/2013 16:55:01 81.17, -32.99 104.55 1.69 15
6 11/26/2013 17:44:42 -81.19, 134.94 75.40 11/26/2013 17:45:41 -81.19, 134.82 75.39 2.02 59
7 11/29/2013 12:29:26 81.17, 33.38 105.01 11/29/2013 12:29:21 81.17, 33.19 104.99 3.32 5
8 11/29/2013 13:18:52 -81.19,-158.57 74.93 11/29/2013 13:20:00 -81.19,-158.60 74.90 0.65 68
9 12/02/2013 07:14:09 -81.16, -67.96 74.61 12/02/2013 07:13:00 -81.15, -68.13 74.66 2.95 69




NCC Satellite Simultaneous Nadir Overpasses (SNOs) Prediction Service
